Location: Newark
(46.7636°N, 1.8358°W)
Time: 20:20:43
(UTC+00:00)

Courier 1B Rocket - All Passes

Search period start: 17 October 2019 00:00
Search period end: 27 October 2019 00:00
Orbit: 920 x 1202 km, 28.2° (Epoch: 16 October)

Date Brightness Start Highest point End Pass type
(mag) Time Alt. Az. Time Alt. Az. Time Alt. Az.
17 Oct - 06:14:00 10° SSW 06:17:14 14° S 06:20:35 10° SE daylight
17 Oct - 08:06:47 10° SW 08:09:25 13° S 08:12:06 10° SSE daylight
18 Oct - 05:13:53 10° SSW 05:16:37 13° S 05:19:25 10° SE visible
18 Oct - 07:05:44 10° SW 07:08:46 14° S 07:11:51 10° SSE daylight
19 Oct - 04:14:19 10° S 04:16:02 11° SSE 04:17:46 10° SSE visible
19 Oct - 06:05:01 10° SSW 06:08:07 14° S 06:11:17 10° SSE daylight
20 Oct - 05:04:33 10° SSW 05:07:31 14° S 05:10:30 10° SSE visible
20 Oct - 06:57:38 10° SSW 06:59:37 11° SSW 07:01:38 10° S daylight
21 Oct - 04:04:21 10° SSW 04:06:55 13° S 04:09:28 10° SSE visible
21 Oct - 05:56:24 10° SSW 05:59:00 13° S 06:01:39 10° SSE visible
22 Oct - 03:04:38 10° S 03:06:19 11° SSE 03:08:00 10° SSE visible
22 Oct - 04:55:33 10° SSW 04:58:24 13° S 05:01:16 10° SSE visible
23 Oct - 03:54:57 10° SSW 03:57:48 13° S 04:00:39 10° SSE visible
23 Oct - 05:48:30 10° SSW 05:49:53 11° SSW 05:51:16 10° S visible
24 Oct - 02:54:35 10° SSW 02:57:13 13° S 02:59:48 10° SSE visible
24 Oct - 04:46:55 10° SSW 04:49:17 12° S 04:51:40 10° SSE visible
25 Oct - 01:54:36 10° S 01:56:37 12° S 01:58:36 10° SSE night (unlit)
25 Oct - 03:45:53 10° SSW 03:48:42 13° S 03:51:30 10° SSE visible
26 Oct - 02:45:07 10° SSW 02:48:06 14° S 02:51:03 10° SSE visible
26 Oct - 04:39:08 10° SSW 04:40:10 10° SSW 04:41:12 10° S visible
